Time,TemperatureF,DewpointF,PressureIn,WindDirection,WindDirectionDegrees,WindSpeedMPH,WindSpeedGustMPH,Humidity,HourlyPrecipIn,Conditions,Clouds,dailyrainin,SoftwareType,DateUTC
2013-01-22 00:03:00,8.0,3.0,30.29,NW,308,9.0,13.0,78,0.00,,,0.00,,2013-01-22 05:03:00,
2013-01-22 00:12:00,8.0,3.0,30.29,NW,308,9.0,13.0,78,0.00,,,0.00,,2013-01-22 05:12:00,
2013-01-22 00:22:00,8.0,3.0,30.29,NW,316,10.0,17.0,79,0.00,,,0.00,,2013-01-22 05:22:00,
2013-01-22 00:32:00,8.0,3.0,30.29,NW,306,12.0,17.0,80,0.00,,,0.00,,2013-01-22 05:32:00,
2013-01-22 00:42:00,8.0,3.0,30.29,NW,306,12.0,17.0,80,0.00,,,0.00,,2013-01-22 05:42:00,
2013-01-22 00:53:00,7.0,3.0,30.29,NW,321,8.0,13.0,82,0.00,,,0.00,,2013-01-22 05:53:00,
2013-01-22 01:02:00,7.0,3.0,30.29,WNW,293,9.0,16.0,83,0.00,,,0.00,,2013-01-22 06:02:00,
2013-01-22 01:12:00,7.0,3.0,30.29,WNW,293,9.0,16.0,83,0.00,,,0.00,,2013-01-22 06:12:00,
2013-01-22 01:22:00,7.0,3.0,30.29,NW,326,12.0,14.0,84,0.00,,,0.00,,2013-01-22 06:22:00,
2013-01-22 01:32:00,7.0,3.0,30.29,NW,321,9.0,14.0,84,0.00,,,0.00,,2013-01-22 06:32:00,
2013-01-22 01:42:00,7.0,3.0,30.29,NW,321,9.0,14.0,84,0.00,,,0.00,,2013-01-22 06:42:00,
2013-01-22 01:53:00,6.0,2.0,30.28,NW,312,9.0,14.0,85,0.00,,,0.00,,2013-01-22 06:53:00,
2013-01-22 02:02:00,6.0,3.0,30.28,NW,315,8.0,10.0,86,0.00,,,0.00,,2013-01-22 07:02:00,
2013-01-22 02:12:00,6.0,3.0,30.28,NW,315,8.0,10.0,86,0.00,,,0.00,,2013-01-22 07:12:00,
2013-01-22 02:22:00,6.0,3.0,30.28,WNW,297,8.0,15.0,86,0.00,,,0.00,,2013-01-22 07:22:00,
2013-01-22 02:32:00,6.0,3.0,30.29,NW,304,9.0,16.0,87,0.00,,,0.00,,2013-01-22 07:32:00,
2013-01-22 02:42:00,6.0,3.0,30.29,NW,304,9.0,16.0,87,0.00,,,0.00,,2013-01-22 07:42:00,
2013-01-22 02:53:00,6.0,3.0,30.29,NW,311,9.0,12.0,87,0.00,,,0.00,,2013-01-22 07:53:00,
2013-01-22 03:02:00,6.0,3.0,30.30,NW,309,6.0,12.0,88,0.00,,,0.00,,2013-01-22 08:02:00,
2013-01-22 03:12:00,6.0,3.0,30.30,NW,309,6.0,12.0,88,0.00,,,0.00,,2013-01-22 08:12:00,
2013-01-22 03:22:00,6.0,3.0,30.30,NW,318,8.0,20.0,88,0.00,,,0.00,,2013-01-22 08:22:00,
2013-01-22 03:32:00,6.0,3.0,30.31,WNW,302,8.0,14.0,88,0.00,,,0.00,,2013-01-22 08:32:00,
2013-01-22 03:42:00,6.0,3.0,30.31,WNW,302,8.0,14.0,88,0.00,,,0.00,,2013-01-22 08:42:00,
2013-01-22 03:52:00,5.0,2.0,30.31,WNW,300,5.0,6.0,88,0.00,,,0.00,,2013-01-22 08:52:00,
2013-01-22 04:02:00,5.0,2.0,30.31,WNW,291,5.0,8.0,89,0.00,,,0.00,,2013-01-22 09:02:00,
2013-01-22 04:12:00,5.0,2.0,30.31,WNW,291,5.0,8.0,89,0.00,,,0.00,,2013-01-22 09:12:00,
2013-01-22 04:22:00,5.0,2.0,30.31,NW,320,7.0,9.0,89,0.00,,,0.00,,2013-01-22 09:22:00,
2013-01-22 04:32:00,5.0,2.0,30.31,WNW,300,9.0,15.0,89,0.00,,,0.00,,2013-01-22 09:32:00,
2013-01-22 04:42:00,5.0,2.0,30.31,WNW,300,9.0,15.0,89,0.00,,,0.00,,2013-01-22 09:42:00,
2013-01-22 04:52:00,5.0,3.0,30.31,NW,315,10.0,13.0,90,0.00,,,0.00,,2013-01-22 09:52:00,
2013-01-22 05:02:00,5.0,3.0,30.31,NW,310,6.0,12.0,90,0.00,,,0.00,,2013-01-22 10:02:00,
2013-01-22 05:12:00,5.0,3.0,30.31,NW,310,6.0,12.0,90,0.00,,,0.00,,2013-01-22 10:12:00,
2013-01-22 05:22:00,5.0,3.0,30.32,WNW,303,10.0,13.0,90,0.00,,,0.00,,2013-01-22 10:22:00,
2013-01-22 05:32:00,5.0,3.0,30.32,NW,314,8.0,12.0,90,0.00,,,0.00,,2013-01-22 10:32:00,
2013-01-22 05:42:00,5.0,3.0,30.32,NW,314,8.0,12.0,90,0.00,,,0.00,,2013-01-22 10:42:00,
2013-01-22 05:52:00,5.0,3.0,30.32,NW,318,10.0,15.0,90,0.00,,,0.00,,2013-01-22 10:52:00,
2013-01-22 06:02:00,5.0,3.0,30.32,NW,314,7.0,9.0,90,0.00,,,0.00,,2013-01-22 11:02:00,
2013-01-22 06:12:00,5.0,3.0,30.32,NW,314,7.0,9.0,90,0.00,,,0.00,,2013-01-22 11:12:00,
2013-01-22 06:22:00,5.0,3.0,30.32,NW,321,10.0,15.0,91,0.00,,,0.00,,2013-01-22 11:22:00,
2013-01-22 06:33:00,5.0,3.0,30.33,NW,306,9.0,15.0,91,0.00,,,0.00,,2013-01-22 11:33:00,
2013-01-22 06:42:00,5.0,3.0,30.33,NW,306,9.0,15.0,91,0.00,,,0.00,,2013-01-22 11:42:00,
2013-01-22 06:53:00,4.0,2.0,30.33,NW,318,8.0,10.0,91,0.00,,,0.00,,2013-01-22 11:53:00,
2013-01-22 07:03:00,4.0,2.0,30.33,NW,317,8.0,12.0,91,0.00,,,0.00,,2013-01-22 12:03:00,
2013-01-22 07:12:00,4.0,2.0,30.33,NW,317,8.0,12.0,91,0.00,,,0.00,,2013-01-22 12:12:00,
2013-01-22 07:23:00,4.0,2.0,30.34,NW,312,7.0,13.0,91,0.00,,,0.00,,2013-01-22 12:23:00,
2013-01-22 07:33:00,4.0,2.0,30.34,NW,312,7.0,13.0,91,0.00,,,0.00,,2013-01-22 12:33:00,
2013-01-22 07:43:00,4.0,2.0,30.34,NW,313,8.0,10.0,91,0.00,,,0.00,,2013-01-22 12:43:00,
2013-01-22 07:53:00,4.0,2.0,30.35,NW,311,9.0,12.0,92,0.00,,,0.00,,2013-01-22 12:53:00,
2013-01-22 08:03:00,4.0,2.0,30.35,NNW,327,8.0,14.0,92,0.00,,,0.00,,2013-01-22 13:03:00,
2013-01-22 08:13:00,4.0,2.0,30.35,NNW,327,8.0,14.0,92,0.00,,,0.00,,2013-01-22 13:13:00,
2013-01-22 08:23:00,4.0,2.0,30.35,NW,316,8.0,13.0,92,0.00,,,0.00,,2013-01-22 13:23:00,
2013-01-22 08:33:00,4.0,2.0,30.36,NW,311,7.0,13.0,92,0.00,,,0.00,,2013-01-22 13:33:00,
2013-01-22 08:43:00,4.0,2.0,30.36,NW,311,7.0,13.0,92,0.00,,,0.00,,2013-01-22 13:43:00,
2013-01-22 08:53:00,4.0,2.0,30.36,NW,313,7.0,13.0,92,0.00,,,0.00,,2013-01-22 13:53:00,
2013-01-22 09:03:00,4.0,2.0,30.36,NW,321,8.0,12.0,92,0.00,,,0.00,,2013-01-22 14:03:00,
2013-01-22 09:13:00,4.0,2.0,30.36,NW,321,8.0,12.0,92,0.00,,,0.00,,2013-01-22 14:13:00,
2013-01-22 09:23:00,5.0,3.0,30.37,NW,312,3.0,12.0,92,0.00,,,0.00,,2013-01-22 14:23:00,
2013-01-22 09:33:00,6.0,4.0,30.37,NW,324,8.0,9.0,92,0.00,,,0.00,,2013-01-22 14:33:00,
2013-01-22 09:43:00,6.0,4.0,30.37,NW,324,8.0,9.0,92,0.00,,,0.00,,2013-01-22 14:43:00,
2013-01-22 09:54:00,6.0,4.0,30.38,NW,313,7.0,9.0,90,0.00,,,0.00,,2013-01-22 14:54:00,
2013-01-22 10:03:00,7.0,4.0,30.38,NW,316,12.0,16.0,89,0.00,,,0.00,,2013-01-22 15:03:00,
2013-01-22 10:12:00,7.0,4.0,30.38,NW,316,12.0,16.0,89,0.00,,,0.00,,2013-01-22 15:12:00,
2013-01-22 10:23:00,7.0,4.0,30.38,NW,325,5.0,14.0,88,0.00,,,0.00,,2013-01-22 15:23:00,
2013-01-22 10:33:00,8.0,5.0,30.39,NNW,330,8.0,12.0,88,0.00,,,0.00,,2013-01-22 15:33:00,
2013-01-22 10:43:00,8.0,5.0,30.39,NNW,330,8.0,12.0,88,0.00,,,0.00,,2013-01-22 15:43:00,
2013-01-22 10:53:00,10.0,7.0,30.39,NNW,329,6.0,9.0,86,0.00,,,0.00,,2013-01-22 15:53:00,
2013-01-22 11:03:00,10.0,6.0,30.40,NW,310,7.0,9.0,84,0.00,,,0.00,,2013-01-22 16:03:00,
2013-01-22 11:13:00,10.0,6.0,30.40,NW,310,7.0,9.0,84,0.00,,,0.00,,2013-01-22 16:13:00,
2013-01-22 11:23:00,9.0,5.0,30.40,NNW,327,9.0,13.0,82,0.00,,,0.00,,2013-01-22 16:23:00,
2013-01-22 11:33:00,9.0,5.0,30.40,NNW,327,9.0,10.0,83,0.00,,,0.00,,2013-01-22 16:33:00,
2013-01-22 11:43:00,9.0,5.0,30.40,NNW,327,9.0,10.0,83,0.00,,,0.00,,2013-01-22 16:43:00,
2013-01-22 11:54:00,11.0,6.0,30.40,WNW,300,7.0,9.0,81,0.00,,,0.00,,2013-01-22 16:54:00,
2013-01-22 12:03:00,11.0,6.0,30.40,NNW,333,7.0,7.0,80,0.00,,,0.00,,2013-01-22 17:03:00,
2013-01-22 12:12:00,11.0,6.0,30.40,NNW,333,7.0,7.0,80,0.00,,,0.00,,2013-01-22 17:12:00,
2013-01-22 12:23:00,12.0,7.0,30.38,WNW,298,2.0,13.0,79,0.00,,,0.00,,2013-01-22 17:23:00,
2013-01-22 12:34:00,12.0,6.0,30.38,WNW,299,8.0,10.0,75,0.00,,,0.00,,2013-01-22 17:34:00,
2013-01-22 12:43:00,12.0,6.0,30.38,WNW,299,8.0,10.0,75,0.00,,,0.00,,2013-01-22 17:43:00,
2013-01-22 12:53:00,12.0,5.0,30.37,NW,324,5.0,14.0,73,0.00,,,0.00,,2013-01-22 17:53:00,
2013-01-22 13:03:00,12.0,5.0,30.36,NNW,339,8.0,14.0,72,0.00,,,0.00,,2013-01-22 18:03:00,
2013-01-22 13:13:00,12.0,5.0,30.36,NNW,339,8.0,14.0,72,0.00,,,0.00,,2013-01-22 18:13:00,
2013-01-22 13:23:00,13.0,5.0,30.35,NNW,334,9.0,12.0,71,0.00,,,0.00,,2013-01-22 18:23:00,
2013-01-22 13:33:00,13.0,5.0,30.35,NW,325,9.0,13.0,69,0.00,,,0.00,,2013-01-22 18:33:00,
2013-01-22 13:43:00,13.0,5.0,30.35,NW,325,9.0,13.0,69,0.00,,,0.00,,2013-01-22 18:43:00,
2013-01-22 13:54:00,14.0,5.0,30.34,NW,309,10.0,17.0,66,0.00,,,0.00,,2013-01-22 18:54:00,
2013-01-22 14:03:00,14.0,5.0,30.34,NW,308,9.0,15.0,67,0.00,,,0.00,,2013-01-22 19:03:00,
2013-01-22 14:13:00,14.0,5.0,30.34,NW,308,9.0,15.0,67,0.00,,,0.00,,2013-01-22 19:13:00,
2013-01-22 14:23:00,14.0,4.0,30.34,WNW,292,12.0,18.0,65,0.00,,,0.00,,2013-01-22 19:23:00,
2013-01-22 14:33:00,14.0,4.0,30.34,NW,317,12.0,16.0,65,0.00,,,0.00,,2013-01-22 19:33:00,
2013-01-22 14:43:00,14.0,4.0,30.34,NW,317,12.0,16.0,65,0.00,,,0.00,,2013-01-22 19:43:00,
2013-01-22 14:54:00,14.0,4.0,30.34,NW,304,14.0,17.0,64,0.00,,,0.00,,2013-01-22 19:54:00,
2013-01-22 15:03:00,15.0,5.0,30.34,NW,304,13.0,16.0,64,0.00,,,0.00,,2013-01-22 20:03:00,
2013-01-22 15:12:00,15.0,5.0,30.34,NW,304,13.0,16.0,64,0.00,,,0.00,,2013-01-22 20:12:00,
2013-01-22 15:23:00,15.0,5.0,30.33,NW,307,9.0,17.0,64,0.00,,,0.00,,2013-01-22 20:23:00,
2013-01-22 15:33:00,15.0,4.0,30.33,West,277,5.0,15.0,62,0.00,,,0.00,,2013-01-22 20:33:00,
2013-01-22 15:43:00,15.0,4.0,30.33,West,277,5.0,15.0,62,0.00,,,0.00,,2013-01-22 20:43:00,
2013-01-22 15:53:00,16.0,5.0,30.34,WNW,301,9.0,16.0,61,0.00,,,0.00,,2013-01-22 20:53:00,
2013-01-22 16:03:00,16.0,5.0,30.34,NW,308,8.0,16.0,61,0.00,,,0.00,,2013-01-22 21:03:00,
2013-01-22 16:13:00,16.0,5.0,30.34,NW,308,8.0,16.0,61,0.00,,,0.00,,2013-01-22 21:13:00,
2013-01-22 16:23:00,16.0,4.0,30.34,NW,310,8.0,9.0,59,0.00,,,0.00,,2013-01-22 21:23:00,
2013-01-22 16:33:00,16.0,5.0,30.34,NNW,328,8.0,9.0,61,0.00,,,0.00,,2013-01-22 21:33:00,
2013-01-22 16:43:00,16.0,5.0,30.34,NNW,328,8.0,9.0,61,0.00,,,0.00,,2013-01-22 21:43:00,
2013-01-22 16:53:00,16.0,5.0,30.33,WNW,300,10.0,15.0,60,0.00,,,0.00,,2013-01-22 21:53:00,
2013-01-22 17:03:00,16.0,5.0,30.33,NW,309,5.0,9.0,60,0.00,,,0.00,,2013-01-22 22:03:00,
2013-01-22 17:12:00,16.0,5.0,30.33,NW,309,5.0,9.0,60,0.00,,,0.00,,2013-01-22 22:12:00,
2013-01-22 17:22:00,15.0,4.0,30.33,NW,312,7.0,9.0,60,0.00,,,0.00,,2013-01-22 22:22:00,
2013-01-22 17:32:00,15.0,4.0,30.33,NW,312,7.0,9.0,60,0.00,,,0.00,,2013-01-22 22:32:00,
2013-01-22 17:43:00,15.0,4.0,30.33,NW,308,7.0,14.0,60,0.00,,,0.00,,2013-01-22 22:43:00,
2013-01-22 17:53:00,15.0,4.0,30.33,NW,309,9.0,13.0,60,0.00,,,0.00,,2013-01-22 22:53:00,
2013-01-22 18:02:00,15.0,4.0,30.33,NW,318,9.0,13.0,60,0.00,,,0.00,,2013-01-22 23:02:00,
2013-01-22 18:12:00,15.0,4.0,30.33,NW,318,9.0,13.0,60,0.00,,,0.00,,2013-01-22 23:12:00,
2013-01-22 18:23:00,14.0,3.0,30.33,NW,312,8.0,12.0,60,0.00,,,0.00,,2013-01-22 23:23:00,
2013-01-22 18:33:00,14.0,3.0,30.33,NW,321,9.0,15.0,61,0.00,,,0.00,,2013-01-22 23:33:00,
2013-01-22 18:43:00,14.0,3.0,30.33,NW,321,9.0,15.0,61,0.00,,,0.00,,2013-01-22 23:43:00,
2013-01-22 18:53:00,14.0,3.0,30.33,NNW,332,8.0,13.0,61,0.00,,,0.00,,2013-01-22 23:53:00,
2013-01-22 19:03:00,14.0,3.0,30.33,NW,313,3.0,12.0,62,0.00,,,0.00,,2013-01-23 00:03:00,
2013-01-22 19:12:00,14.0,3.0,30.33,NW,313,3.0,12.0,62,0.00,,,0.00,,2013-01-23 00:12:00,
2013-01-22 19:22:00,14.0,3.0,30.34,NW,315,7.0,13.0,62,0.00,,,0.00,,2013-01-23 00:22:00,
2013-01-22 19:43:00,14.0,4.0,30.34,NW,318,8.0,13.0,63,0.00,,,0.00,,2013-01-23 00:43:00,
2013-01-22 19:52:00,14.0,4.0,30.34,NW,323,8.0,13.0,64,0.00,,,0.00,,2013-01-23 00:52:00,
2013-01-22 20:03:00,14.0,4.0,30.33,NW,323,8.0,10.0,64,0.00,,,0.00,,2013-01-23 01:03:00,
2013-01-22 20:13:00,14.0,4.0,30.33,NW,323,8.0,10.0,64,0.00,,,0.00,,2013-01-23 01:13:00,
2013-01-22 20:22:00,14.0,4.0,30.33,NW,324,7.0,12.0,65,0.00,,,0.00,,2013-01-23 01:22:00,
2013-01-22 20:33:00,13.0,3.0,30.33,NNW,337,8.0,13.0,65,0.00,,,0.00,,2013-01-23 01:33:00,
2013-01-22 20:43:00,13.0,3.0,30.33,NNW,337,8.0,13.0,65,0.00,,,0.00,,2013-01-23 01:43:00,
2013-01-22 20:53:00,13.0,4.0,30.33,NW,325,8.0,9.0,66,0.00,,,0.00,,2013-01-23 01:53:00,
2013-01-22 21:03:00,13.0,4.0,30.33,NW,319,6.0,9.0,67,0.00,,,0.00,,2013-01-23 02:03:00,
2013-01-22 21:12:00,13.0,4.0,30.33,NW,319,6.0,9.0,67,0.00,,,0.00,,2013-01-23 02:12:00,
2013-01-22 21:23:00,13.0,4.0,30.33,NW,325,0.0,0.0,67,0.00,,,0.00,,2013-01-23 02:23:00,
2013-01-22 21:33:00,13.0,4.0,30.33,WNW,299,1.0,9.0,68,0.00,,,0.00,,2013-01-23 02:33:00,
2013-01-22 21:42:00,13.0,4.0,30.33,WNW,299,1.0,9.0,68,0.00,,,0.00,,2013-01-23 02:42:00,
2013-01-22 21:53:00,13.0,4.0,30.34,WNW,298,0.0,0.0,68,0.00,,,0.00,,2013-01-23 02:53:00,
2013-01-22 22:03:00,13.0,5.0,30.34,NW,306,5.0,5.0,69,0.00,,,0.00,,2013-01-23 03:03:00,
2013-01-22 22:12:00,13.0,5.0,30.34,NW,306,5.0,5.0,69,0.00,,,0.00,,2013-01-23 03:12:00,
2013-01-22 22:23:00,13.0,5.0,30.34,NW,312,6.0,9.0,70,0.00,,,0.00,,2013-01-23 03:23:00,
2013-01-22 22:32:00,13.0,5.0,30.34,NW,317,3.0,8.0,70,0.00,,,0.00,,2013-01-23 03:32:00,
2013-01-22 22:42:00,13.0,5.0,30.34,NW,317,3.0,8.0,70,0.00,,,0.00,,2013-01-23 03:42:00,
2013-01-22 22:53:00,13.0,5.0,30.35,NNW,327,2.0,8.0,71,0.00,,,0.00,,2013-01-23 03:53:00,
2013-01-22 23:03:00,13.0,5.0,30.35,NW,320,2.0,10.0,71,0.00,,,0.00,,2013-01-23 04:03:00,
2013-01-22 23:12:00,13.0,5.0,30.35,NW,320,2.0,10.0,71,0.00,,,0.00,,2013-01-23 04:12:00,
2013-01-22 23:22:00,13.0,5.0,30.35,NNW,327,5.0,7.0,71,0.00,,,0.00,,2013-01-23 04:22:00,
2013-01-22 23:32:00,13.0,5.0,30.35,NW,318,0.0,0.0,71,0.00,,,0.00,,2013-01-23 04:32:00,
2013-01-22 23:43:00,13.0,5.0,30.35,NW,318,0.0,0.0,71,0.00,,,0.00,,2013-01-23 04:43:00,
2013-01-22 23:53:00,13.0,6.0,30.35,NNW,328,3.0,8.0,72,0.00,,,0.00,,2013-01-23 04:53:00,